{"data":{"norad_id":48792,"epoch":"2026-05-25T02:06:15.736896Z","epoch_age_seconds":77510,"freshness":"FRESH","line1":"1 48792U 21045AB  26145.08768214  .00000231  00000+0  57884-3 0  9996","line2":"2 48792  87.8996 263.7900 0001777 100.2370 259.8960 13.15547525241342","mean_motion":13.15547525,"eccentricity":0.0001777,"inclination_deg":87.8996,"raan_deg":263.79,"arg_perigee_deg":100.237,"mean_anomaly_deg":259.896,"bstar":0.00057884,"rev_number":24134,"period_min":109.46012763773,"perigee_km":1200.4277543738,"apogee_km":1203.1216549937,"semimajor_km":7579.9117046838,"source":"CELESTRAK","updated_at":"2026-05-25T13:38:22.446889Z"}}